Lapse_Rate
4.9 4.9 5.1 5.0 5.1 5.3 5.3 5.3 5.5 5.5 5.5 5.5 5.7 5.6 5.6 5.8 5.7 5.7 5.6 5.6 5.6 5.5 5.5 5.6 5.5 5.5 5.6 5.5 5.4 5.4 5.4 5.4 5.5 5.4 5.2 5.2 5.2 5.1 5.1 5.1 5.3 5.4 5.5
5.1 5.0 5.1 5.1 5.3 5.4 5.4 5.5 5.6 5.6 5.6 5.7 5.6 5.6 5.7 5.7 5.7 5.7 5.6 5.6 5.6 5.6 5.6 5.6 5.7 5.7 5.4 5.4 5.5 5.5 5.6 5.6 5.5 5.3 5.3 5.3 5.0 5.0 5.1 5.3 5.6 5.4 5.5
5.2 5.2 5.2 5.2 5.4 5.5 5.5 5.6 5.7 5.7 5.6 5.6 5.6 5.7 5.7 5.7 5.6 5.6 5.7 5.8 5.9 5.8 5.8 5.8 5.8 5.6 5.5 5.6 5.5 5.6 5.7 5.6 5.5 5.4 5.4 5.3 5.2 5.1 5.2 5.6 5.6 5.5 5.5
5.2 5.3 5.2 5.3 5.2 5.4 5.6 5.7 5.8 5.7 5.7 5.6 5.7 5.6 5.6 5.5 5.5 5.5 5.8 5.9 6.0 5.9 5.9 5.7 5.7 5.7 5.8 5.8 5.7 5.7 5.7 5.6 5.5 5.5 5.4 5.4 5.3 5.3 5.5 5.7 5.7 5.6 5.5
5.4 5.2 5.3 5.4 5.4 5.4 5.5 5.6 5.8 5.6 5.6 5.6 5.6 5.6 5.7 5.7 5.8 5.8 5.9 5.9 5.9 5.9 5.8 5.7 5.7 5.7 5.8 5.8 5.8 5.7 5.6 5.5 5.6 5.7 5.8 5.6 5.5 5.5 5.4 5.5 5.7 5.7 5.7
5.5 5.4 5.5 5.5 5.5 5.4 5.3 5.3 5.8 5.8 5.7 5.7 5.7 5.7 6.0 6.1 5.9 5.8 5.9 6.0 6.1 6.0 6.0 5.9 5.8 5.7 5.7 5.7 5.7 5.7 5.9 6.0 6.0 6.1 5.9 5.8 5.7 5.7 5.8 5.8 5.8 5.7 5.9
5.5 5.5 5.4 5.4 5.4 5.3 5.4 5.2 5.8 5.7 5.7 5.9 5.7 5.9 6.0 5.9 5.7 5.9 6.0 6.0 6.2 6.2 6.1 6.1 6.0 5.9 5.9 6.0 6.0 6.1 6.2 6.1 6.1 6.2 6.0 6.0 6.0 6.1 6.2 6.1 6.2 6.2 6.2
5.1 5.3 5.4 5.4 5.5 5.2 5.4 5.4 5.8 5.7 5.9 5.7 5.7 5.9 5.9 5.8 5.7 6.0 6.0 6.2 6.2 6.2 6.2 6.3 6.2 6.2 6.1 6.1 6.1 6.2 6.1 6.0 6.1 6.1 6.2 6.2 6.4 6.4 6.6 6.7 6.7 6.7 6.5
5.2 5.3 5.4 5.6 5.4 5.3 5.6 5.6 5.8 5.9 5.9 5.7 5.7 6.0 5.8 5.7 5.8 6.0 6.2 6.3 6.3 6.4 6.5 6.3 6.4 6.2 6.1 6.1 6.1 6.1 6.0 6.0 6.1 6.3 6.4 6.5 6.6 6.7 6.9 6.9 6.8 6.7 6.7
5.1 5.2 5.3 5.4 5.5 5.5 5.9 6.0 5.8 6.0 5.9 5.6 5.9 5.9 5.7 5.9 6.0 6.2 6.2 6.3 6.3 6.4 6.4 6.5 6.4 6.2 6.1 6.1 6.2 6.1 6.0 6.1 6.3 6.4 6.7 6.7 6.7 6.9 7.0 7.1 6.9 6.8 6.6
5.4 5.4 5.4 5.2 5.4 5.6 5.8 6.1 6.0 5.8 5.8 5.9 5.9 6.0 5.9 6.1 6.2 6.2 6.1 6.1 6.3 6.4 6.4 6.4 6.2 6.1 6.2 6.2 6.2 6.2 6.3 6.3 6.4 6.7 6.9 7.0 7.0 7.2 7.2 7.1 7.0 6.9 6.9
5.3 5.3 5.1 5.0 5.3 5.8 5.8 5.9 6.0 5.8 5.8 5.8 6.0 6.1 6.1 6.3 6.4 6.2 5.9 5.7 6.4 6.4 6.4 6.4 6.3 6.3 6.2 6.4 6.3 6.4 6.6 6.4 6.5 6.8 7.1 7.3 7.4 7.4 7.4 7.3 7.2 7.0 7.1
5.1 5.3 5.2 4.9 5.0 5.6 5.8 6.0 6.0 5.8 5.9 5.9 6.0 6.2 6.2 6.2 6.4 6.3 6.5 6.4 6.6 6.3 6.3 6.4 6.4 6.4 6.4 6.4 6.3 6.3 6.5 6.6 6.8 7.1 7.5 7.7 7.8 7.8 7.7 7.6 7.4 7.2 7.2
5.2 5.1 5.2 4.8 5.3 5.3 5.5 5.7 5.8 6.0 5.9 5.9 6.0 6.2 6.2 6.2 6.4 6.5 6.7 6.8 6.6 6.4 6.3 6.4 6.4 6.4 6.6 6.6 6.5 6.5 6.6 6.8 6.9 7.2 7.7 7.8 8.0 8.0 8.0 7.8 7.5 7.4 7.3
5.5 5.3 5.2 5.0 5.0 5.2 5.5 5.7 5.8 5.9 6.0 6.0 5.9 5.9 6.1 6.2 6.6 6.7 6.6 6.8 6.6 6.4 6.4 6.6 6.7 6.4 6.6 6.6 6.5 6.6 6.9 7.1 7.2 7.4 7.6 8.0 8.0 7.9 7.9 7.8 7.6 7.4 7.3
5.4 5.4 5.4 5.3 5.3 5.4 5.5 5.6 5.7 5.9 6.1 5.9 5.8 5.8 6.0 6.2 6.5 6.7 6.8 6.8 6.6 6.8 6.9 6.7 7.0 6.8 6.8 6.8 6.8 6.6 6.8 6.9 7.3 7.4 7.5 8.0 8.0 7.9 7.8 7.7 7.6 7.4 7.2
5.4 5.3 5.3 5.4 5.6 5.7 5.6 5.5 5.8 5.9 5.9 5.8 5.8 6.1 6.0 6.1 6.2 6.5 6.7 6.8 6.9 7.1 7.3 7.0 7.1 7.2 7.3 7.3 7.4 7.2 7.2 7.2 7.3 7.6 7.6 7.8 7.9 7.7 7.6 7.7 7.4 7.4 7.2
5.3 5.3 5.1 5.3 5.3 5.4 5.5 5.5 5.5 5.7 5.8 5.8 5.8 6.0 6.1 6.1 6.2 6.3 6.6 6.6 7.2 7.3 7.5 7.3 7.3 7.6 7.8 8.0 8.0 7.8 7.9 7.9 7.9 7.9 7.9 7.9 7.8 7.8 7.6 7.5 7.5 7.3 7.2
5.1 5.1 5.2 5.2 5.0 5.2 5.4 5.4 5.5 5.3 5.6 5.9 6.0 5.9 6.2 6.3 6.5 6.4 6.2 6.6 7.2 7.3 7.5 7.3 7.4 7.5 7.7 8.0 7.9 7.9 8.1 8.1 8.2 8.1 8.1 8.0 7.8 7.5 7.3 7.3 7.4 7.1 6.9
5.3 5.2 5.1 4.9 5.3 5.3 5.5 5.7 5.6 5.5 5.6 5.7 6.0 6.0 6.1 6.3 6.4 6.4 6.2 6.4 6.8 7.0 7.2 7.3 7.4 7.5 7.7 7.7 7.7 7.9 8.0 8.2 8.3 8.2 8.1 7.9 7.7 7.5 7.4 7.3 7.2 7.1 6.9
5.2 5.7 5.5 5.3 5.1 5.4 5.9 5.8 5.8 5.8 5.7 5.7 5.7 5.9 6.1 6.1 6.1 6.2 6.5 6.4 6.6 6.7 6.9 7.0 7.0 6.9 7.1 7.4 7.6 7.7 7.5 7.7 7.9 8.0 7.9 7.8 7.5 7.4 7.2 7.2 6.9 6.7 6.6
5.2 5.0 5.4 5.6 5.4 5.3 5.1 5.3 5.7 5.8 6.0 5.8 5.7 5.7 5.9 6.0 6.1 6.0 6.3 6.6 6.5 6.7 6.9 7.1 7.2 7.1 6.9 7.0 7.4 7.6 7.5 7.5 7.6 7.4 7.3 7.2 7.0 6.8 6.7 6.6 6.3 6.2 6.5
5.4 5.6 5.5 5.2 5.4 5.4 5.2 5.2 5.6 5.8 6.0 6.0 5.9 5.5 5.7 5.8 5.7 6.0 6.0 6.1 6.5 6.7 6.6 6.6 6.9 7.1 7.1 7.0 7.1 7.2 7.3 7.2 7.1 7.1 7.0 7.0 6.7 6.5 6.5 6.2 5.7 5.9 6.1
5.6 5.7 5.7 5.6 5.5 5.5 5.5 5.6 5.5 5.9 6.1 6.1 6.1 5.7 5.5 5.6 5.8 5.8 6.0 6.0 6.1 6.4 6.6 6.6 6.6 6.8 7.0 7.0 7.0 7.1 7.0 7.0 6.9 6.9 6.7 6.5 6.4 6.1 6.0 5.8 5.5 5.7 5.9
5.7 5.9 5.9 5.8 5.7 5.4 5.3 5.2 5.3 5.3 5.4 5.8 6.5 6.6 6.1 5.7 5.8 5.9 5.9 6.1 6.1 6.1 6.3 6.4 6.4 6.7 6.9 6.8 6.7 6.8 6.7 6.7 6.6 6.6 6.7 6.1 5.8 5.6 5.5 5.3 5.2 5.5 5.5
6.1 6.2 6.2 5.9 5.7 5.7 5.4 5.6 5.2 5.2 5.2 5.4 5.4 5.8 6.1 6.2 6.0 6.0 5.9 6.0 6.1 6.2 6.3 6.4 6.4 6.6 6.8 7.0 6.8 6.9 6.8 6.6 6.5 6.4 6.5 6.5 6.3 6.1 5.5 5.4 5.3 5.5 5.6
Wind_Speed
4 7 5 9 11 12 14 15 17 17 17 17 17 18 18 18 17 18 17 16 16 15 14 15 15 14 15 15 15 15 15 14 13 13 13 13 13 13 13 13 13 12 13
7 9 9 11 11 12 14 15 17 18 17 16 16 17 17 17 17 16 15 15 15 14 15 14 14 14 13 13 14 13 14 13 13 14 15 14 12 13 13 13 12 10 11
7 10 10 11 12 13 14 14 16 17 16 16 15 15 16 15 15 14 13 13 13 13 12 12 12 12 12 12 13 12 12 11 11 12 13 12 12 12 12 11 11 11 10
11 9 9 12 11 13 14 14 16 16 16 15 14 14 14 14 13 12 12 11 11 10 10 11 10 11 11 10 9 9 8 7 10 10 8 8 9 11 11 10 10 10 9
8 11 11 13 13 12 12 13 15 16 15 15 14 13 14 13 11 10 12 10 11 9 8 8 9 9 9 8 6 4 2 5 7 8 7 8 7 8 10 9 9 9 8
8 11 13 14 14 13 12 13 15 16 14 14 14 13 12 11 10 9 9 8 9 9 8 8 7 8 7 6 4 2 5 11 11 9 7 7 6 10 8 8 8 8 6
6 9 13 14 14 14 13 12 14 14 13 13 11 10 10 9 8 7 6 8 9 9 8 8 8 7 6 4 5 4 13 11 10 8 7 7 6 7 7 8 8 7 6
7 10 12 16 15 15 13 14 13 13 13 12 9 8 8 7 6 6 6 7 8 8 8 8 7 6 4 4 6 10 11 9 7 8 7 6 7 7 7 7 7 6 6
9 8 11 16 17 16 16 14 12 11 11 11 8 6 5 5 3 3 4 5 6 7 7 6 6 4 4 5 6 9 9 8 10 8 7 6 6 8 7 7 6 5 5
5 7 8 12 13 13 13 14 13 11 10 9 7 5 4 3 2 0 1 1 3 4 5 4 3 3 3 4 4 7 7 9 10 8 7 8 7 8 8 7 6 6 4
5 4 7 7 8 7 9 11 11 10 10 8 6 4 2 1 2 3 5 4 3 2 1 1 3 3 3 3 1 4 6 5 7 8 9 10 10 10 9 8 7 6 6
7 5 4 7 8 9 6 9 7 5 5 4 3 2 2 1 3 5 8 6 7 8 7 6 7 7 6 5 5 6 7 7 8 9 9 10 11 10 9 9 8 8 8
9 7 6 6 8 7 5 6 4 3 3 3 3 3 3 3 6 8 7 9 7 9 9 8 8 10 10 8 8 7 8 10 10 11 10 12 12 11 10 10 9 9 9
8 7 7 6 7 7 6 6 6 4 4 3 5 7 5 4 5 6 7 8 10 7 4 2 3 6 9 11 12 10 10 12 12 13 13 14 14 13 12 12 11 11 11
12 8 9 6 6 7 6 6 6 6 6 6 6 7 7 5 3 7 10 11 7 7 5 4 3 1 3 8 12 11 10 13 13 14 15 15 16 15 15 14 14 13 13
11 11 10 7 7 8 5 7 7 8 9 7 6 6 6 6 3 4 5 6 9 6 2 4 4 3 3 6 5 10 10 11 12 13 16 16 17 17 18 17 16 16 16
10 10 11 10 9 7 7 9 8 10 9 8 8 7 8 7 4 2 3 4 6 9 8 11 9 8 2 1 1 3 6 10 13 13 15 17 15 20 19 19 18 18 19
10 11 11 10 9 6 6 8 9 11 10 10 11 10 9 6 5 4 3 4 9 7 8 4 3 3 4 2 1 4 5 9 12 13 13 15 15 14 15 21 20 22 21
13 13 11 10 9 8 7 6 6 8 10 12 11 11 12 10 8 5 4 5 8 7 5 2 2 1 2 3 4 3 3 5 6 11 11 13 15 15 15 15 22 25 24
13 12 10 7 8 7 4 3 2 2 5 8 11 12 14 12 8 6 6 3 7 4 4 3 1 2 2 3 3 4 4 4 4 5 5 10 14 15 17 16 16 16 22
12 11 10 9 7 6 3 3 2 2 3 2 7 12 13 12 10 7 5 3 3 3 4 5 3 3 3 3 3 4 3 3 3 2 5 5 6 11 13 12 14 17 16
15 12 10 11 8 7 4 3 3 3 3 2 5 8 14 13 12 9 7 4 3 2 5 5 2 3 2 3 1 1 4 4 3 3 2 2 1 1 2 6 9 13 16
13 13 12 11 10 7 7 3 2 2 2 1 2 3 7 14 12 12 11 7 4 2 4 4 3 2 3 2 1 2 2 2 3 3 3 3 3 2 2 5 6 7 9
14 11 11 10 9 9 7 5 6 5 5 3 4 3 5 11 13 12 13 10 6 4 5 5 2 3 2 4 2 1 2 2 1 4 2 3 5 3 4 4 6 10 11
9 12 12 10 10 10 9 7 6 4 3 3 3 5 5 5 12 13 12 11 6 4 5 6 5 4 3 2 3 2 1 1 1 1 4 4 4 4 3 4 5 7 12
4 5 4 5 8 8 9 8 8 8 6 4 5 4 4 4 5 9 11 10 11 6 6 6 6 5 5 4 3 3 3 2 2 2 2 3 4 4 3 5 3 5 10
Wind_Direction
208 199 194 124 109 104 103 99 100 101 100 99 98 98 98 99 97 96 97 97 99 97 92 89 89 92 95 105 104 101 97 98 101 102 98 97 94 95 94 93 90 92 98
143 184 185 132 122 110 107 105 106 106 104 101 100 102 100 101 101 97 95 95 96 97 93 92 94 92 92 92 97 102 102 99 100 97 99 105 109 99 96 92 95 92 96
142 186 177 139 131 117 112 110 109 110 111 107 108 105 102 98 97 98 98 99 99 98 95 97 100 103 98 95 101 100 99 97 94 96 97 97 107 109 109 110 113 110 110
151 181 168 145 135 124 120 121 115 119 114 115 113 111 104 101 100 98 102 98 98 97 94 102 104 101 98 97 94 99 107 106 108 102 102 106 112 118 118 114 108 110 112
152 162 162 151 141 132 124 124 119 118 119 117 114 112 108 107 103 97 103 103 100 95 94 97 102 105 102 99 90 80 64 191 165 118 112 110 107 124 123 128 121 119 124
144 155 165 155 144 136 130 128 126 125 123 119 118 116 112 111 110 103 104 106 105 101 102 107 113 114 113 101 71 31 108 124 132 125 113 123 116 136 131 157 130 132 134
127 150 153 157 148 142 141 132 129 127 127 121 117 121 118 113 108 103 92 114 104 99 103 110 114 116 109 80 41 60 135 139 134 127 126 123 118 128 140 146 144 137 144
135 139 157 155 154 149 148 142 135 135 129 124 124 132 121 123 118 112 100 98 105 105 105 108 110 100 83 55 35 136 136 142 141 143 141 142 148 152 153 141 146 153 151
135 138 157 155 156 155 148 146 140 141 132 132 142 142 137 141 129 109 96 98 97 96 92 94 91 77 53 40 39 156 161 163 158 156 151 158 148 161 154 162 169 160 157
132 126 134 156 154 163 150 149 147 141 145 147 155 158 160 166 157 137 141 68 91 87 75 67 63 47 21 15 19 157 165 164 170 182 180 186 186 183 176 175 168 161 146
129 117 118 136 139 132 146 152 148 153 154 155 173 175 181 243 305 324 310 335 328 4 17 312 302 307 317 304 266 155 170 181 199 205 194 194 195 193 192 191 192 189 193
155 151 152 156 158 157 159 148 158 164 145 162 170 165 190 269 317 329 311 301 296 292 281 264 266 268 263 262 259 223 216 214 219 214 213 204 201 196 195 195 197 196 203
163 161 170 169 164 179 151 153 160 164 159 195 217 232 249 295 312 301 291 297 292 288 274 267 252 247 246 243 240 233 223 207 226 221 227 217 211 203 202 205 205 206 212
171 176 181 178 173 183 171 174 183 182 201 223 247 261 265 290 298 286 287 283 295 330 303 320 242 238 229 236 241 236 217 213 224 232 233 225 222 216 213 214 214 216 222
170 175 190 177 182 183 174 194 207 212 217 230 255 259 258 254 273 294 296 304 329 356 15 342 317 44 194 235 234 220 219 216 218 226 237 231 225 227 225 223 223 223 227
180 176 180 186 191 178 189 192 205 213 230 234 235 255 239 240 271 305 311 308 332 349 317 252 243 264 255 259 221 213 215 210 226 229 234 236 230 230 233 235 233 231 233
186 176 181 185 183 188 194 201 206 215 223 225 229 235 240 265 228 280 298 309 343 321 315 350 352 352 58 265 250 195 203 210 222 226 232 234 237 235 236 238 242 242 239
181 177 184 191 186 197 205 205 207 213 219 221 222 220 231 224 220 242 294 335 351 323 316 349 352 342 357 33 207 238 214 217 226 227 227 232 233 239 240 242 243 246 247
182 180 188 188 183 185 198 204 225 214 198 214 221 226 231 224 218 232 273 323 347 320 321 322 327 354 332 321 292 262 242 236 226 224 224 228 236 239 239 241 242 246 249
178 185 186 190 170 171 158 142 150 194 251 229 219 223 238 240 235 227 268 317 355 330 320 318 319 311 274 297 301 312 277 261 228 229 232 226 229 237 243 243 246 256 254
177 172 174 168 174 160 162 162 154 203 213 224 239 232 238 250 246 237 255 293 343 324 302 315 323 344 315 346 358 336 328 307 285 246 239 239 242 243 240 254 255 256 261
175 183 177 187 175 187 176 178 162 164 210 191 221 230 243 240 241 243 239 244 251 307 318 307 318 328 311 357 31 73 340 332 347 344 31 335 287 262 246 256 268 259 262
178 180 187 191 188 192 189 126 98 60 92 127 240 231 240 242 238 233 251 239 228 236 275 292 290 273 294 310 296 157 340 277 328 327 352 11 27 10 346 293 263 293 291
191 185 192 191 187 198 183 179 186 182 193 212 190 215 249 241 241 229 236 248 238 218 248 262 254 236 189 266 324 274 260 176 277 327 332 330 334 327 317 309 316 331 335
192 191 193 199 199 197 191 197 198 219 230 216 199 221 228 241 239 236 228 237 232 223 232 241 263 247 227 241 201 285 311 18 148 168 290 315 336 324 309 293 293 319 333
182 184 192 205 211 200 195 200 202 208 219 231 248 246 237 229 230 235 236 228 235 229 225 236 238 235 242 245 225 222 214 205 232 215 260 288 261 289 301 303 329 325 330